Theta_e
313 317 320 320 323 325 326 327 326 324 322 318 317 318 320 320 321 324 325 325 327 328 330 332 330 330 329 328 332 334 335 335 336 337 342 342 337 338 340 340 340 339 338 333 331 330 327 327 324 321 324 328 329 330 330 330 330 332 334 334 334 333 333 333 332 332 331 331 332 333 333 333 334 333 333 333 333 333 332 332 331 330 331 332 332 332 332 331 331 331 331 331 331 331 331 330 330
313 319 322 322 324 325 327 327 323 322 319 315 316 319 320 320 320 320 322 325 326 328 330 331 328 327 326 326 328 333 337 336 336 339 340 338 338 339 339 340 340 340 337 334 333 330 327 327 325 321 324 329 329 329 329 330 331 332 334 334 333 333 334 333 333 332 331 331 331 333 333 333 334 333 334 333 333 333 333 333 332 331 332 332 333 333 333 332 332 331 330 331 331 331 330 330 331
314 319 325 324 324 325 327 326 321 318 317 314 315 320 321 319 320 321 324 324 326 329 330 329 326 326 324 325 328 333 337 336 335 336 337 338 338 338 339 340 339 339 337 337 336 330 327 328 327 322 323 326 325 328 330 331 332 332 334 334 333 332 333 334 333 332 332 331 331 332 332 333 333 334 334 334 333 333 333 333 333 333 332 332 332 332 333 333 332 331 330 330 330 330 330 330 331
315 319 326 325 326 326 325 326 322 318 316 314 315 320 320 321 325 325 325 325 327 330 329 327 326 327 326 326 330 335 338 336 336 336 337 337 337 338 338 339 339 339 338 339 338 331 328 329 328 324 321 322 322 325 329 331 331 332 333 334 332 332 333 333 333 332 332 332 332 331 331 332 332 333 333 333 332 332 332 331 332 332 332 332 332 332 332 332 332 331 331 330 330 330 329 330 330
317 322 324 325 330 327 324 325 324 320 316 315 315 319 321 325 328 326 327 326 328 330 327 327 325 325 326 329 332 336 338 337 336 336 336 336 336 337 337 339 339 340 339 339 338 331 328 329 328 325 321 321 321 323 328 331 331 332 333 333 332 332 332 333 333 333 333 332 331 330 330 330 331 332 332 332 331 331 331 331 332 332 332 331 330 332 332 332 332 332 331 330 330 330 330 329 329
320 323 323 324 328 325 325 323 321 320 318 318 317 318 324 326 327 326 327 326 327 329 327 328 325 324 329 331 335 336 337 337 336 336 337 336 336 336 337 338 338 340 339 339 337 330 329 329 328 327 322 319 318 322 329 331 331 332 333 333 332 332 332 333 334 333 333 332 331 330 329 329 330 331 330 330 329 329 331 331 332 332 332 331 331 332 332 331 331 331 331 330 330 330 330 329 328
322 325 325 325 325 324 326 322 320 320 319 320 319 319 325 325 326 326 325 325 326 326 326 328 324 328 331 330 335 337 337 337 337 338 337 336 336 336 336 337 338 339 339 340 336 330 329 329 328 327 324 320 317 321 327 329 331 331 332 333 331 331 332 333 334 333 333 331 330 329 329 328 329 330 330 330 328 328 329 330 331 331 331 331 332 332 332 331 331 331 330 330 329 329 329 328 327
322 326 327 326 326 325 325 322 322 321 318 319 321 321 324 324 325 325 325 325 324 324 326 327 325 327 328 329 334 336 338 339 339 338 336 336 336 336 336 337 338 338 339 340 336 330 330 330 329 328 326 322 319 319 323 327 329 330 331 332 332 331 331 332 333 333 332 331 329 328 328 328 329 331 330 330 330 329 329 330 330 330 330 330 331 332 331 331 330 330 330 329 329 329 328 327 327
322 326 326 326 326 324 322 322 322 319 318 318 320 323 325 324 323 324 324 323 323 324 324 326 325 325 328 332 335 335 339 339 338 337 336 337 336 336 336 336 337 338 339 340 335 330 330 331 330 329 327 325 321 318 320 323 325 327 329 331 332 331 331 331 332 332 332 331 329 327 327 328 328 329 330 330 330 330 330 330 330 330 330 330 330 331 331 330 330 330 329 328 328 328 327 327 326
323 325 325 325 325 322 320 320 321 319 318 319 320 323 325 323 323 323 323 322 322 323 323 325 324 324 329 334 336 336 338 338 338 337 337 336 336 336 335 336 338 338 339 339 335 330 330 331 331 330 329 327 324 321 319 320 321 322 326 330 331 330 330 331 331 332 331 330 328 328 327 327 327 328 330 330 330 330 330 330 330 329 330 330 330 330 330 330 330 329 329 328 328 327 326 326 326
325 324 325 325 321 320 319 319 320 320 318 319 319 321 324 323 323 322 322 322 321 324 324 324 323 324 330 336 337 336 336 338 337 336 337 336 336 336 334 336 337 338 339 339 336 331 330 331 331 331 330 328 327 324 320 318 319 319 323 329 330 330 330 331 331 331 331 329 328 328 327 327 327 327 328 328 329 329 329 329 329 329 329 330 330 329 329 329 329 329 328 328 328 326 325 326 326
328 326 326 324 321 321 321 320 320 319 318 318 318 319 322 323 322 321 321 321 322 325 324 324 323 321 328 337 338 335 336 337 337 336 336 336 336 335 334 336 337 339 339 340 338 333 330 331 332 331 331 330 328 326 323 319 319 319 322 326 327 328 329 330 331 331 330 328 327 327 327 326 325 326 326 326 328 329 328 328 329 329 329 329 329 329 329 329 328 328 328 328 328 326 326 326 326
329 328 325 322 323 324 322 321 321 321 320 318 318 319 321 323 323 322 321 320 322 325 323 323 322 321 330 337 337 335 336 336 337 337 335 335 335 334 335 336 337 339 339 340 339 335 332 331 332 332 331 331 329 328 326 322 319 319 320 323 324 325 327 329 330 331 330 328 327 327 327 325 324 325 326 326 326 327 327 326 327 328 328 328 328 328 328 328 328 327 327 327 327 326 326 326 325
328 329 325 324 324 324 323 322 321 321 319 319 319 319 321 322 323 322 320 321 322 322 322 321 320 322 330 336 337 335 336 336 337 336 336 335 335 334 335 336 337 339 339 339 340 337 334 333 333 333 332 332 331 329 328 325 322 319 319 321 323 323 323 324 326 328 327 328 328 327 327 324 323 325 326 327 326 326 326 325 326 326 326 327 327 327 327 328 327 327 327 327 327 326 326 325 324
327 329 327 326 324 323 324 323 322 320 319 320 319 319 321 321 322 321 320 320 320 321 321 321 320 321 327 334 337 335 336 337 337 336 336 335 335 334 335 336 337 339 339 339 340 339 337 336 335 334 333 332 331 330 329 328 324 322 319 320 322 323 323 321 322 323 324 326 326 327 326 323 323 324 325 326 326 325 325 325 325 324 325 327 326 327 327 327 327 327 327 327 326 326 326 325 324
325 326 327 326 323 322 323 324 323 320 319 320 319 320 321 319 321 319 317 319 320 320 320 321 320 323 331 336 335 335 336 337 337 336 336 336 335 335 335 335 337 339 339 338 339 339 339 338 337 335 334 333 333 331 329 329 327 325 321 320 321 322 322 322 322 322 322 323 322 323 322 321 322 324 324 325 326 326 325 324 325 324 325 326 326 326 327 326 326 327 327 327 326 326 325 324 323
322 325 327 324 322 322 322 323 322 320 320 319 319 320 320 319 319 317 316 318 319 320 321 322 321 325 335 338 335 336 337 336 337 336 336 336 335 335 335 335 337 339 338 338 338 338 339 339 338 337 336 336 335 334 331 329 329 327 324 322 321 320 321 321 321 320 320 319 319 321 321 320 322 324 324 324 325 325 324 323 324 323 323 325 325 325 325 325 326 326 326 325 326 325 325 324 323
322 325 325 322 323 322 321 321 320 320 320 318 319 319 320 319 318 316 316 318 318 319 321 323 324 325 333 337 336 337 336 336 337 336 336 335 335 335 335 335 336 338 338 338 338 338 338 339 339 338 338 337 337 336 334 331 329 328 327 324 323 321 320 320 319 319 318 317 321 324 325 324 324 325 324 324 325 325 324 323 323 323 323 323 323 324 324 325 325 325 325 324 325 325 324 324 323
322 325 323 322 323 320 318 318 317 320 320 318 319 320 320 319 318 317 317 319 318 319 319 322 324 325 332 338 337 337 336 336 337 336 336 335 335 335 335 335 335 337 337 338 338 337 338 338 339 339 338 338 337 337 336 333 330 329 329 327 325 323 322 322 320 320 318 317 323 326 325 325 326 325 324 324 324 324 324 322 323 323 323 323 322 322 322 323 323 323 323 323 325 325 324 324 323
320 323 324 323 321 318 316 316 315 318 319 318 319 320 320 319 318 317 317 318 318 319 318 321 324 324 332 338 336 336 336 336 336 336 336 335 335 335 335 335 335 336 336 337 337 337 337 337 338 338 338 339 338 337 337 334 332 331 330 329 328 325 325 327 326 326 324 321 325 326 324 325 326 325 323 324 324 323 324 323 323 323 323 323 323 322 321 322 321 321 321 322 324 324 324 324 323
320 321 322 321 319 317 315 315 315 317 318 318 319 319 319 318 317 317 317 319 317 318 318 318 322 324 331 338 336 336 336 336 336 336 335 335 335 335 335 335 335 335 336 336 337 337 337 337 337 337 338 338 338 337 337 335 334 333 332 331 329 327 327 330 328 329 328 325 326 326 325 323 323 325 324 324 324 322 323 323 322 322 322 322 323 322 320 320 320 320 320 322 324 324 324 324 323
319 319 319 318 318 317 314 314 314 316 318 318 319 319 319 318 317 317 318 318 318 317 318 318 320 324 330 337 337 335 335 335 336 335 335 335 335 335 335 335 335 335 336 336 336 337 337 337 337 337 337 338 338 337 337 336 335 334 333 332 331 330 329 330 329 329 328 327 326 327 325 321 320 321 320 323 324 323 322 322 322 322 322 321 322 322 320 319 319 320 322 323 323 322 324 324 324
318 319 317 316 317 315 313 314 314 316 317 318 319 319 318 318 317 317 318 317 317 316 319 321 321 324 329 334 336 335 335 335 335 335 336 336 335 335 335 335 335 335 335 335 336 337 337 337 337 337 337 337 338 337 337 336 336 335 334 333 331 331 330 329 329 329 328 327 327 327 324 322 322 320 319 323 325 323 322 322 323 323 322 320 321 322 321 319 319 321 321 321 321 321 323 323 323
317 318 317 315 315 314 313 313 313 314 316 317 318 318 318 318 316 317 318 316 317 317 319 323 323 324 328 332 333 334 334 335 335 336 336 337 336 335 336 336 336 335 335 335 336 336 336 337 337 337 336 336 337 337 337 336 336 336 335 333 331 331 331 330 330 329 329 328 327 327 324 323 324 323 323 325 325 324 323 323 323 323 322 320 321 322 321 320 319 320 320 321 321 321 322 322 323
316 317 316 314 313 313 312 312 313 313 314 315 317 318 317 316 316 317 318 317 319 319 319 323 324 324 328 332 332 333 334 335 335 336 337 337 336 336 336 336 336 335 335 335 335 335 336 336 336 336 336 336 336 336 337 336 336 336 335 333 331 331 331 330 330 329 329 328 327 327 326 325 324 323 324 324 325 324 323 323 323 323 322 322 322 321 321 319 319 320 320 320 321 320 321 321 321
316 317 316 314 313 312 312 312 312 313 313 314 316 317 315 314 314 316 316 317 320 322 321 322 325 325 328 331 333 334 334 335 335 336 336 336 337 336 336 336 335 335 335 336 336 336 336 336 336 336 336 336 336 336 337 336 336 336 335 333 331 331 331 330 330 329 329 328 328 327 326 326 325 324 323 323 323 323 324 323 323 322 321 321 321 320 319 318 318 320 320 320 320 320 321 321 321
315 316 315 314 313 313 313 313 312 313 313 313 314 316 315 313 314 315 315 318 321 322 322 322 324 325 326 328 330 332 333 334 335 335 336 336 336 336 336 336 336 335 335 336 336 335 336 336 336 336 336 336 336 336 336 336 336 336 335 334 332 331 330 330 330 330 329 329 328 328 327 326 326 325 324 323 323 322 323 323 322 321 319 319 319 318 319 317 318 320 319 320 320 321 321 321 321
315 315 315 314 313 313 313 313 312 313 313 313 315 315 314 314 315 315 315 318 319 320 321 321 322 323 325 326 328 329 330 332 334 334 335 335 336 336 336 337 336 336 335 335 335 335 335 336 335 336 335 335 335 336 336 336 336 336 335 334 333 332 331 330 331 330 330 330 329 328 328 327 326 325 325 324 323 322 322 322 320 318 318 318 317 317 317 316 317 320 320 320 320 320 320 320 320
315 315 315 314 314 313 313 313 313 313 313 313 314 315 315 315 315 315 315 316 317 317 319 320 320 322 325 326 327 329 328 330 332 333 334 335 335 336 336 336 336 336 336 335 335 335 335 335 335 336 336 335 335 336 336 336 336 336 335 334 333 333 332 331 331 331 330 330 329 329 328 328 327 326 325 324 324 322 321 321 319 317 317 318 318 317 316 314 315 318 319 319 319 319 320 320 319
314 315 315 315 315 314 314 314 313 314 313 313 314 315 317 316 315 315 315 315 316 316 318 319 318 320 324 327 329 331 329 328 330 332 333 334 335 335 336 336 336 336 336 335 335 335 335 335 335 336 336 335 335 335 336 336 335 336 335 335 334 333 333 331 331 331 330 329 329 329 329 328 328 327 326 325 325 324 322 322 320 318 317 318 319 317 316 314 313 315 317 318 318 318 319 318 318
314 314 315 317 316 315 315 314 314 314 314 313 314 315 317 316 315 315 314 314 315 316 317 319 318 318 322 327 330 332 331 329 330 332 332 334 335 335 336 337 336 335 335 335 335 335 335 334 334 335 335 335 335 334 335 335 335 336 336 335 334 333 333 332 332 332 330 329 329 330 329 329 328 327 326 326 326 326 324 323 322 321 319 318 318 317 316 314 312 313 315 316 317 317 318 317 317
313 314 315 318 317 315 315 314 314 315 313 312 313 314 316 315 315 315 315 314 314 314 316 318 319 318 320 327 329 329 329 329 330 332 333 333 334 335 335 336 336 335 335 335 335 335 335 334 334 334 334 335 335 334 334 335 335 335 335 336 335 334 333 332 332 332 331 330 330 330 330 329 328 327 327 326 326 326 325 324 323 323 322 320 319 318 317 316 313 312 314 315 316 317 317 317 317
314 314 315 317 316 315 315 314 315 315 313 312 313 314 316 315 314 314 314 314 314 314 315 316 317 317 319 324 327 327 328 328 330 330 332 333 333 333 333 333 334 335 335 335 335 335 335 335 334 333 333 334 334 334 333 333 334 335 335 335 335 334 334 333 333 333 332 331 331 330 330 330 328 328 327 326 326 326 325 325 324 323 323 322 320 320 319 317 315 314 315 315 316 316 316 317 317
315 314 315 316 314 315 315 315 316 316 314 313 313 314 315 315 314 314 314 314 314 314 315 315 316 317 319 322 324 324 326 329 329 328 329 331 331 332 332 331 332 333 334 333 334 335 335 335 334 334 333 333 333 335 333 332 333 334 334 334 334 335 334 334 333 333 333 332 331 331 330 330 329 328 327 327 326 326 326 325 325 323 323 322 321 321 320 318 317 316 316 315 315 316 316 316 316
314 314 314 315 314 314 315 315 316 316 315 314 314 313 315 314 314 314 313 314 314 314 315 315 316 317 319 320 321 321 322 325 327 326 327 329 330 331 332 332 331 332 333 332 333 334 334 335 335 334 333 333 333 334 333 331 331 332 334 333 333 334 334 334 333 333 332 332 332 332 331 330 329 329 328 327 327 327 326 326 325 324 323 322 321 321 321 320 318 318 317 316 315 315 316 316 316
315 316 314 314 315 314 315 315 315 316 315 315 315 313 313 313 314 314 313 314 314 314 315 315 316 317 318 319 320 321 321 322 323 324 326 327 329 330 331 332 331 332 332 332 333 334 333 334 335 334 333 333 333 333 333 331 331 331 332 333 333 334 334 334 333 332 332 332 332 332 332 330 329 328 328 328 328 327 327 326 325 324 324 323 322 322 322 322 321 320 319 317 316 315 315 315 315
314 316 315 314 316 314 314 315 314 315 315 315 316 315 314 315 315 316 314 314 315 315 315 316 317 318 318 319 319 321 321 320 319 321 324 326 327 328 329 330 330 332 333 333 334 334 333 333 334 333 332 332 331 332 333 332 331 331 331 332 332 333 334 334 333 332 331 331 331 332 332 331 329 329 329 328 328 328 328 327 326 326 325 325 324 324 324 323 322 321 319 317 316 315 315 314 314
313 315 315 314 316 314 314 315 313 314 315 316 316 316 315 316 316 316 315 314 314 314 314 315 317 318 319 319 320 321 320 320 321 320 322 325 326 326 327 328 328 329 331 332 333 333 333 332 333 333 332 331 330 331 332 332 332 331 331 331 332 331 332 333 333 332 331 330 330 330 331 331 330 330 330 329 329 329 328 328 328 327 327 326 325 325 324 323 322 321 319 318 316 315 315 314 313
315 316 315 314 316 316 314 314 313 313 314 316 318 318 316 316 317 316 316 314 314 314 315 316 316 316 316 317 319 321 320 323 326 322 320 324 326 326 327 327 327 327 328 329 331 332 332 331 331 332 332 331 330 331 331 331 331 331 330 330 331 331 331 333 333 332 331 330 329 329 329 329 331 331 331 330 330 330 329 328 328 328 327 327 326 325 324 323 323 321 320 319 317 315 314 314 313
316 316 314 315 318 317 315 315 314 313 313 316 318 318 317 316 317 318 317 315 314 315 315 316 318 317 316 317 319 320 320 323 327 323 320 320 323 326 326 326 327 327 327 327 328 329 330 330 330 331 331 331 330 330 330 330 331 331 331 330 330 330 330 331 332 331 331 329 328 328 328 330 331 330 331 331 330 330 330 329 328 328 328 327 327 326 324 324 324 323 321 319 317 314 314 314 314
317 318 316 317 319 319 318 316 313 313 315 316 315 314 315 314 315 316 316 317 315 316 317 316 318 319 319 321 322 321 320 322 325 324 320 317 318 322 324 325 325 326 326 326 326 327 327 328 329 329 330 330 329 329 330 331 331 330 330 330 330 329 329 330 331 331 330 330 329 328 327 328 328 329 330 330 330 329 329 329 328 328 328 327 327 326 325 325 324 322 321 319 317 315 315 315 314
314 319 319 317 317 320 321 318 314 313 316 318 314 314 317 316 315 315 314 316 316 315 317 316 317 320 321 323 325 326 326 324 323 323 320 316 315 317 319 321 323 324 325 325 325 325 325 326 327 328 328 328 328 328 328 329 330 330 329 329 329 329 329 329 330 330 330 330 329 328 327 327 327 329 330 330 329 328 328 329 329 328 327 327 327 327 325 324 323 322 321 320 318 317 316 315 313
311 319 322 318 320 324 323 320 317 314 317 320 317 317 318 316 315 316 316 315 317 316 317 317 316 319 322 321 322 326 328 327 326 325 321 317 314 315 315 316 318 320 321 322 323 324 324 325 326 327 327 327 327 327 327 328 329 329 329 328 328 328 329 328 328 329 329 330 329 328 328 327 327 328 328 327 327 327 328 329 329 327 326 325 325 325 324 323 322 322 322 321 320 318 317 315 313
315 324 327 321 321 327 326 323 319 317 319 321 319 317 317 318 317 318 319 317 318 318 318 320 319 318 320 320 319 321 323 325 326 327 325 319 315 315 315 315 315 316 317 318 321 323 324 324 325 326 327 327 327 327 326 327 327 328 328 328 327 327 328 328 328 328 328 329 329 328 328 328 327 325 324 324 325 327 328 329 329 327 325 323 323 323 323 323 324 323 322 321 320 319 317 316 314
321 326 326 322 322 325 326 323 320 320 322 320 320 317 317 320 320 318 319 316 317 319 318 319 318 317 319 318 319 319 320 321 322 325 325 318 315 315 315 315 314 314 314 315 317 320 322 323 324 326 327 327 326 326 326 326 326 327 327 327 327 326 327 326 326 326 327 328 328 328 327 326 325 324 324 323 324 326 327 327 327 326 325 324 323 324 324 324 324 322 322 321 319 318 317 316 314
322 324 323 323 324 323 322 321 318 318 320 320 322 319 316 321 320 315 318 316 317 319 316 317 318 318 318 319 321 321 320 323 323 323 320 315 315 316 315 314 314 313 313 313 314 316 320 322 324 325 326 327 326 325 325 325 325 326 326 326 325 325 325 325 324 325 325 326 326 326 325 324 324 325 325 324 323 323 323 324 324 324 324 325 324 324 324 323 322 321 321 320 319 317 316 315 314
321 323 323 322 320 320 320 320 317 318 321 320 322 320 316 320 320 315 318 319 317 318 315 317 320 319 320 322 324 324 324 327 326 324 319 314 314 315 313 313 313 313 313 312 313 314 316 320 322 324 325 326 326 325 325 324 324 324 324 324 323 323 323 324 324 324 325 325 325 324 324 324 324 325 325 325 323 321 321 321 321 321 322 323 323 322 322 321 321 320 320 319 318 316 315 314 313
322 322 320 320 318 317 317 317 317 320 322 318 319 321 319 320 319 314 317 317 316 317 314 317 320 322 324 324 323 322 323 327 327 327 323 318 316 314 312 312 311 311 312 312 313 313 314 317 320 323 325 325 325 325 324 324 323 322 322 322 322 321 322 322 323 324 325 325 325 324 324 324 324 324 324 324 323 322 321 320 319 319 319 319 320 320 320 320 319 318 317 316 316 315 314 313 312
322 320 318 320 320 318 318 319 320 320 320 315 314 318 320 320 316 314 316 315 315 316 314 316 320 323 325 323 322 321 320 322 324 326 326 324 320 313 312 312 311 311 311 311 312 313 314 315 317 320 322 323 324 323 323 323 322 321 321 321 321 321 322 321 322 324 325 325 325 324 324 324 323 323 322 323 323 322 321 320 319 319 319 319 318 318 318 317 316 315 313 312 312 312 312 311 311
318 318 319 321 319 317 318 319 320 320 318 315 314 317 320 319 316 316 317 313 314 317 318 322 322 323 326 323 322 322 321 321 324 325 327 328 320 313 312 312 312 312 311 311 312 313 314 315 316 318 320 322 322 322 322 321 321 320 319 319 321 321 321 322 322 323 324 325 325 325 324 323 323 323 323 323 323 323 322 321 320 319 319 319 319 318 317 316 314 313 311 310 310 310 310 310 309
316 318 321 321 318 318 319 319 321 324 320 314 314 318 320 318 317 318 317 315 316 316 319 323 323 322 323 322 321 322 322 322 325 327 328 327 319 315 315 313 313 313 312 312 313 314 314 315 316 317 318 320 321 321 320 320 319 319 318 319 321 322 321 322 323 322 323 324 325 324 323 323 323 324 324 323 323 322 321 321 320 320 319 319 318 317 316 315 314 313 311 310 310 309 308 308 308
316 320 321 322 321 321 321 318 319 321 321 318 317 320 321 318 317 316 317 318 317 315 318 319 320 322 323 323 323 323 322 323 326 328 328 325 318 317 318 315 315 314 313 314 315 315 315 315 316 317 317 319 320 320 319 318 318 318 318 319 321 322 322 322 323 323 323 324 324 324 323 323 323 324 324 323 323 322 321 321 320 320 319 318 318 316 315 314 313 313 312 310 309 308 307 307 306
316 318 320 321 323 324 321 317 315 315 317 321 320 319 318 315 315 316 317 320 319 316 317 316 317 320 323 325 326 326 325 327 331 330 329 325 318 318 319 317 317 315 314 316 316 315 316 316 317 317 317 319 319 319 318 317 318 318 319 320 321 322 322 323 323 324 324 324 323 323 323 323 323 323 323 322 322 321 320 320 319 319 318 317 316 315 314 314 313 312 311 310 309 308 307 306 305
316 318 319 317 319 321 317 316 318 316 316 318 319 318 317 314 317 320 316 318 319 316 314 315 315 318 322 326 327 328 329 331 332 329 328 323 316 316 318 317 318 317 316 317 316 316 317 316 317 318 318 319 319 319 318 317 318 319 319 320 320 322 322 323 323 323 324 324 323 323 323 323 322 322 322 321 320 320 319 319 318 317 316 315 315 314 313 313 312 312 311 310 309 308 306 305 305
316 318 319 318 320 319 315 315 317 317 316 316 317 318 316 315 316 317 316 318 319 317 315 315 316 318 321 324 325 328 330 330 328 326 328 325 316 315 317 317 317 317 316 317 316 316 317 317 318 318 319 319 318 318 317 317 318 319 319 320 320 321 322 322 323 322 322 322 322 322 322 322 321 321 321 320 320 319 318 318 317 316 315 314 313 313 312 312 312 311 311 310 309 308 306 305 305
314 315 315 318 321 319 318 317 315 316 317 317 317 316 317 320 317 314 316 318 317 317 318 317 317 319 320 320 324 329 330 329 327 325 328 326 317 314 316 315 316 317 316 317 316 316 317 317 318 319 320 319 318 317 316 316 318 319 319 319 320 321 321 321 321 321 321 320 320 320 320 320 320 320 320 319 319 318 317 316 315 314 314 313 312 312 311 311 311 311 310 310 309 308 306 305 304
313 315 314 315 317 316 317 319 317 316 317 317 316 315 318 321 318 315 314 315 319 321 322 321 320 320 320 321 326 331 329 328 329 328 330 326 317 314 316 314 314 315 316 317 317 316 317 317 317 318 319 319 317 317 316 316 317 318 319 319 319 320 320 320 320 320 319 319 318 318 318 318 318 318 318 317 316 316 315 314 313 313 312 312 311 311 311 311 310 310 310 309 309 308 306 305 304
314 314 314 314 315 317 318 318 318 316 315 316 315 317 325 324 317 319 316 314 319 322 321 321 318 316 317 321 324 327 327 328 329 328 331 325 315 313 315 314 313 314 314 315 316 316 316 317 317 318 318 318 317 317 316 316 317 317 318 318 319 319 319 319 319 318 318 317 317 317 316 316 316 316 315 314 314 313 313 312 312 311 311 311 311 310 310 310 310 310 309 309 309 308 307 305 304
Wind_Speed
5 5 6 5 6 8 7 4 2 2 2 4 3 2 2 5 6 6 6 5 5 3 3 6 7 5 1 2 9 10 9 6 3 0 2 7 17 18 19 23 22 20 18 17 15 13 12 11 11 12 14 15 14 14 14 14 15 14 12 12 15 17 17 17 18 17 17 17 17 17 17 17 15 15 17 17 17 19 21 22 21 20 19 20 20 20 20 20 20 20 20 19 19 19 20 21 22
5 4 5 6 7 6 3 2 2 3 3 4 1 5 4 4 6 7 5 5 6 4 4 6 6 4 1 1 6 9 10 9 7 6 8 15 18 18 21 21 20 19 18 17 15 14 12 11 12 12 14 14 13 14 15 15 16 15 13 12 14 17 17 16 17 17 17 17 16 17 17 17 16 16 17 18 19 20 21 21 20 20 19 19 20 19 19 19 19 20 20 20 20 20 20 21 22
5 3 4 6 6 5 2 0 2 3 4 3 3 5 5 4 6 8 6 9 9 6 6 5 4 2 1 2 5 7 6 8 10 9 10 16 14 17 21 19 20 18 17 17 14 14 13 12 12 12 13 14 14 15 16 15 15 14 13 12 12 14 17 16 16 16 15 16 16 16 17 17 17 17 17 19 20 20 20 18 18 18 18 19 19 19 18 18 19 19 19 19 19 19 20 21 23
5 2 4 6 4 3 2 1 3 3 4 1 4 4 6 6 8 11 9 10 7 5 6 3 3 1 3 5 5 7 7 6 10 9 9 14 16 20 22 19 20 18 18 17 14 14 13 12 12 12 12 13 15 16 15 15 14 14 13 11 10 13 17 16 15 15 15 16 16 15 15 16 16 16 16 17 19 19 17 16 16 17 18 18 18 18 18 18 18 18 18 18 18 18 20 22 24
4 2 5 6 1 1 1 2 3 3 3 1 4 5 7 10 11 11 8 8 6 5 5 4 2 0 2 5 3 3 5 6 9 10 11 17 21 22 20 20 20 18 18 17 15 14 14 13 12 12 12 13 15 15 15 14 13 14 14 11 11 14 18 17 15 15 16 16 15 15 15 15 15 15 15 16 17 17 16 16 16 17 18 18 17 17 17 17 17 17 17 17 17 17 19 21 23
5 3 4 5 1 1 1 3 4 3 4 2 5 4 8 11 11 11 9 6 4 3 2 2 2 3 3 4 5 4 3 8 10 11 16 22 23 21 20 20 19 18 19 17 15 15 15 13 12 12 12 12 14 15 15 14 13 14 14 11 11 14 16 17 16 15 15 15 14 15 15 15 14 13 14 15 15 16 16 16 16 16 17 17 16 16 16 16 16 16 16 16 16 16 18 21 22
5 4 3 3 2 0 1 4 5 2 4 4 4 5 10 11 10 12 9 5 3 2 2 0 3 5 4 3 5 6 7 10 13 15 20 23 24 22 21 19 18 19 19 16 14 16 15 13 13 12 12 12 13 15 14 14 14 14 13 11 11 14 15 16 17 15 14 14 14 15 15 14 14 13 12 14 14 14 14 15 15 15 16 16 15 15 15 16 16 16 16 16 15 16 18 20 21
5 3 1 1 2 1 3 5 4 0 1 4 4 5 12 11 9 10 8 6 2 2 1 1 2 2 2 3 3 4 11 17 18 22 24 24 25 22 19 18 19 18 19 16 13 16 15 13 13 11 12 12 12 13 14 14 14 12 13 12 11 13 15 15 17 15 13 13 14 14 15 14 14 13 12 13 14 14 14 14 15 14 15 14 14 15 15 15 14 14 14 15 15 15 17 19 19
4 2 0 1 2 2 3 5 4 2 3 3 4 7 12 9 8 9 8 7 5 5 5 3 1 1 4 6 6 4 10 19 22 25 25 23 25 21 18 18 18 18 18 15 14 17 15 13 12 11 12 12 12 12 13 13 12 12 13 13 10 11 14 14 15 15 13 13 13 14 14 14 13 13 12 12 13 14 14 14 14 14 14 14 13 14 13 13 13 13 13 13 13 14 16 17 17
4 3 1 1 3 3 4 5 4 3 5 4 4 7 10 7 8 9 7 7 6 5 7 4 1 3 8 8 5 5 9 18 22 23 22 23 23 19 18 18 17 17 16 14 15 17 15 13 12 11 11 11 11 11 11 11 11 12 13 13 10 10 12 13 13 13 13 12 13 13 13 14 13 12 12 12 12 13 14 14 13 13 13 13 13 12 12 12 12 12 12 12 12 13 15 16 15
2 3 1 1 3 3 4 5 3 5 5 5 4 5 7 6 7 7 7 7 7 6 6 4 2 4 8 7 1 6 14 17 20 22 22 22 21 19 18 18 17 15 14 14 15 16 15 14 12 11 10 11 10 10 10 10 11 11 12 13 11 9 10 13 12 11 11 11 12 12 12 12 12 11 10 10 12 12 13 13 12 12 12 12 12 12 11 11 11 11 12 12 11 13 15 15 15
2 3 2 1 4 4 4 4 4 6 5 5 4 3 3 5 6 7 8 7 7 7 5 4 2 4 6 5 1 9 16 16 19 22 22 22 20 18 18 17 17 14 14 14 13 15 15 13 12 11 9 10 10 10 9 10 11 11 12 12 11 10 9 11 11 10 10 11 11 11 11 10 10 11 9 9 10 10 11 12 12 12 12 11 11 11 11 10 10 10 10 10 10 12 15 14 14
2 3 2 2 4 3 3 2 3 7 4 4 5 4 3 4 5 6 7 7 7 7 6 5 0 1 4 5 4 9 13 16 20 22 21 21 19 18 18 17 16 14 15 15 13 14 15 14 13 11 10 9 9 9 9 10 10 11 12 11 11 11 10 9 9 10 10 10 9 8 8 8 9 10 9 8 8 8 9 10 10 12 11 10 10 10 10 10 10 10 9 8 9 13 14 13 13
1 2 2 3 4 4 3 1 4 5 3 5 6 6 5 3 4 5 7 7 5 3 4 4 1 1 4 4 5 5 11 19 22 22 21 19 19 18 18 17 16 14 15 14 13 13 14 14 13 12 11 10 9 9 9 9 10 11 11 12 11 10 9 9 9 9 8 8 7 7 7 7 8 9 8 7 6 6 7 8 8 10 11 10 9 9 9 9 9 9 8 7 8 12 13 12 11
1 3 1 2 3 4 3 0 3 4 3 6 7 8 7 1 1 5 3 4 3 0 4 6 4 2 2 2 5 7 15 24 23 23 20 18 19 17 17 18 15 14 14 14 14 13 13 13 12 13 13 11 11 10 10 10 10 10 10 11 11 9 8 8 8 7 7 7 6 6 6 7 7 8 8 7 6 5 6 7 7 8 10 10 9 9 9 9 8 8 7 5 8 12 12 10 10
0 3 1 2 3 3 2 1 1 3 2 5 7 8 8 2 2 4 2 1 4 1 2 4 3 3 3 2 9 17 23 27 24 23 21 18 19 16 16 18 15 14 14 14 15 15 15 14 12 12 13 11 11 11 11 11 10 10 10 11 11 10 8 7 7 6 6 6 6 5 6 7 8 8 7 6 5 5 5 5 6 7 10 9 8 8 8 8 7 7 5 5 7 10 10 9 9
1 1 2 2 3 3 4 4 2 3 4 5 8 8 8 3 2 2 1 2 6 3 3 5 6 6 4 7 19 26 27 27 25 24 21 18 18 16 15 17 16 15 15 14 15 16 16 16 13 12 13 12 11 10 11 12 11 10 10 11 11 10 8 7 6 6 6 6 6 7 8 8 8 8 6 5 5 4 4 4 5 6 8 9 8 8 8 7 6 5 4 4 6 8 8 8 8
0 2 2 3 5 3 2 3 4 5 6 6 9 9 8 8 4 3 3 3 5 5 5 7 9 8 5 12 24 28 27 27 26 24 21 18 17 16 15 17 18 17 17 15 15 16 16 16 14 14 15 14 13 12 10 12 12 11 11 11 11 10 10 8 7 7 6 7 8 9 8 7 7 7 5 5 6 5 4 3 4 4 6 7 7 8 8 8 7 5 5 5 6 7 7 7 7
2 2 2 4 3 1 3 4 4 4 8 8 8 8 6 9 7 4 5 5 6 6 6 7 8 6 4 13 23 25 25 25 24 23 20 19 18 17 16 17 18 18 18 18 17 17 16 15 14 15 17 16 15 14 11 11 13 12 10 10 10 10 10 9 8 7 7 8 10 10 7 5 6 7 6 6 6 5 4 3 3 3 4 4 4 4 5 7 6 4 5 5 6 7 7 5 6
3 2 2 4 0 2 5 7 5 4 8 9 7 7 5 9 8 3 5 7 7 6 6 8 8 7 6 12 20 22 22 21 22 22 20 20 20 19 19 18 18 19 19 19 18 18 18 17 16 16 17 16 16 15 12 12 12 10 9 9 9 10 10 8 7 7 5 8 11 9 7 8 8 8 7 8 6 5 5 4 3 3 2 3 3 2 4 6 5 3 4 5 8 8 6 4 3
2 3 2 3 3 3 5 6 5 6 4 8 7 6 5 9 7 5 7 7 6 7 7 9 9 12 11 10 17 20 20 20 20 21 21 21 20 20 19 20 19 19 19 20 19 20 19 18 18 17 17 17 17 16 13 12 13 11 10 8 8 8 10 8 7 7 6 7 11 7 9 9 9 9 10 9 6 4 5 5 4 2 2 3 3 2 3 6 5 4 4 8 10 7 5 3 2
1 4 2 3 4 3 4 5 5 6 2 5 8 6 5 7 6 6 8 6 4 3 5 10 11 14 15 13 16 17 17 19 20 20 21 20 20 20 19 20 20 19 20 20 20 20 20 19 19 18 18 17 17 16 13 13 15 15 13 10 9 8 8 10 8 8 9 8 10 7 10 9 7 8 11 10 6 4 3 4 3 1 1 2 4 0 2 4 4 5 8 10 8 5 5 4 3
1 5 2 3 4 3 3 3 4 6 2 5 7 5 5 6 4 5 7 4 3 2 2 4 10 18 21 18 16 14 14 16 19 21 21 21 21 21 20 21 22 22 22 22 21 21 21 20 19 19 19 18 17 16 14 15 17 17 15 12 12 11 9 10 10 9 9 7 9 8 8 9 7 7 10 12 9 7 3 3 3 3 3 1 5 3 4 2 3 6 9 7 4 3 5 6 7
4 4 2 3 4 4 3 2 3 5 4 2 3 5 5 6 4 4 6 3 6 4 5 6 13 21 22 17 14 14 15 17 20 21 22 22 22 21 20 21 21 22 23 23 22 21 22 22 21 21 19 19 19 18 16 17 17 17 16 14 14 14 12 12 11 10 9 8 9 9 7 10 9 8 10 12 12 9 7 6 7 8 7 2 5 6 8 5 4 6 5 5 5 8 9 10 11
7 4 3 2 3 4 2 3 1 3 3 3 2 6 5 4 2 3 7 5 7 6 6 7 13 17 15 14 13 12 14 17 19 21 21 22 22 21 20 20 20 21 22 22 22 21 22 23 21 22 21 20 20 19 18 17 18 17 16 16 16 16 14 13 13 12 11 10 9 9 8 9 10 10 10 12 13 11 10 11 11 11 9 6 8 10 10 8 6 8 7 8 9 10 11 10 11
6 4 4 4 3 4 2 3 2 1 1 2 2 5 4 3 1 3 8 6 8 7 7 6 9 11 10 11 12 12 12 15 19 20 21 21 22 22 21 21 21 21 22 22 22 21 22 23 22 22 22 21 21 20 20 17 18 19 17 17 17 18 16 14 14 14 13 11 11 11 11 11 9 10 11 11 12 12 12 13 13 12 11 10 11 10 9 8 6 8 9 10 9 7 7 8 9
3 3 6 4 4 4 1 3 4 1 1 1 3 4 4 3 1 3 6 8 9 8 7 6 7 8 9 9 10 12 13 15 20 20 19 20 20 22 22 21 21 21 22 22 23 22 21 23 23 22 22 22 21 21 21 19 18 19 18 18 19 19 18 15 16 16 14 13 13 13 13 13 11 10 10 11 12 12 14 14 14 13 12 12 11 9 9 8 6 8 9 8 7 8 8 8 8
2 5 6 4 4 4 1 3 5 2 2 3 4 2 4 3 2 4 3 8 10 9 8 7 7 7 8 9 9 10 12 16 21 20 19 21 20 22 22 22 22 20 22 23 24 23 22 23 24 23 23 23 22 22 22 21 19 19 18 18 20 19 18 17 18 16 14 15 16 15 13 13 13 12 11 11 12 13 14 14 14 13 12 12 11 10 10 9 8 9 10 9 9 10 10 10 10
2 3 3 4 4 3 4 4 4 3 2 4 2 1 1 3 7 6 5 6 7 9 8 8 7 7 7 8 8 7 11 16 19 19 20 22 21 22 23 24 24 21 21 22 23 24 23 24 24 24 24 24 24 23 22 22 20 20 19 18 19 19 17 18 19 17 15 17 18 16 15 13 13 14 13 12 12 14 14 14 13 13 13 12 12 11 11 11 10 11 12 12 12 11 10 12 12
2 3 2 4 3 3 6 5 5 3 1 3 1 1 4 8 13 9 8 7 6 7 8 8 7 7 7 7 6 6 9 14 16 19 21 22 22 23 23 24 26 24 22 22 22 24 24 24 25 25 25 25 25 24 22 22 21 20 19 18 19 19 19 19 19 18 15 16 18 18 18 17 14 14 15 15 14 14 14 14 13 13 13 13 12 12 13 13 12 13 15 14 13 13 12 13 13
1 3 3 2 2 3 6 6 7 4 1 2 2 1 5 5 9 9 9 9 9 7 7 8 7 7 7 7 7 6 7 12 16 19 21 22 23 23 23 23 25 26 23 23 23 24 24 25 25 26 26 26 26 26 23 22 21 21 20 19 18 19 20 20 19 19 17 15 17 18 18 18 16 15 15 17 17 15 14 15 14 14 13 13 14 14 14 13 12 13 15 15 14 14 14 13 13
3 3 2 3 3 2 4 5 7 5 1 4 3 2 5 2 4 7 7 8 9 8 7 8 8 8 7 7 7 7 7 12 16 18 20 21 22 22 23 23 24 26 25 23 23 24 24 25 26 27 27 27 27 27 26 24 22 21 21 20 19 19 20 20 19 21 21 17 17 18 16 17 18 16 16 17 17 15 15 15 15 14 14 14 15 16 16 14 13 13 15 15 14 14 14 14 14
3 4 3 4 4 2 3 3 5 4 4 5 4 2 3 1 4 5 4 6 7 7 7 9 8 8 8 7 7 7 7 10 12 16 20 21 22 22 23 24 24 26 26 24 23 25 25 25 27 27 28 28 26 26 27 26 24 22 22 21 20 21 21 22 22 22 23 21 20 20 17 16 18 18 17 17 17 15 15 16 15 14 14 16 16 17 17 14 13 14 15 15 14 14 13 14 15
3 4 3 4 6 4 3 1 2 4 4 5 6 4 4 3 6 6 4 6 6 6 7 8 8 8 8 7 7 7 7 8 9 15 21 21 22 22 22 24 25 25 26 25 24 25 26 26 27 27 26 27 26 26 25 25 25 24 22 21 22 22 22 23 23 24 25 24 22 22 21 17 17 20 20 19 18 17 16 16 15 14 15 16 17 18 17 15 14 15 16 15 15 15 14 15 16
4 4 4 4 7 7 5 2 3 7 5 5 7 6 8 6 6 6 6 7 7 7 7 7 7 8 8 8 7 8 8 8 10 17 23 23 24 23 22 23 24 25 26 25 24 25 27 26 27 28 25 25 26 26 24 24 25 25 23 22 22 22 23 23 22 24 25 26 25 24 22 19 18 21 22 22 21 19 18 17 16 16 17 17 17 17 17 17 17 17 18 17 17 17 17 17 18
6 7 6 5 5 5 4 1 1 5 4 5 7 7 10 9 6 6 7 8 8 8 7 7 7 7 7 8 7 8 8 8 12 20 24 25 26 25 24 24 25 25 25 26 25 26 28 26 26 29 29 27 27 25 24 25 26 26 25 23 23 23 24 24 22 22 23 25 26 24 22 22 22 23 22 23 23 22 20 19 18 18 19 19 18 18 18 18 18 19 19 19 19 19 19 19 19
3 6 8 7 4 2 2 2 1 1 2 6 7 7 9 8 8 8 8 8 8 8 8 8 7 7 7 7 8 8 8 8 13 20 25 26 26 27 26 25 26 25 25 26 26 26 28 28 27 29 30 30 30 29 27 27 28 28 27 27 26 24 23 23 22 22 22 24 25 25 25 25 26 25 23 24 25 24 23 22 22 22 21 21 21 20 19 20 20 20 20 20 21 20 20 21 21
6 0 4 6 5 2 2 2 1 1 1 4 7 8 9 8 8 7 8 9 9 9 10 9 9 8 7 7 8 8 7 7 10 15 21 26 26 27 27 26 27 28 27 28 28 28 29 29 29 29 30 31 31 32 31 30 30 30 30 30 29 25 22 22 24 24 24 25 26 27 27 28 28 28 26 25 27 26 25 25 25 25 25 24 23 22 22 22 22 21 21 21 21 22 22 21 22
4 3 0 4 3 3 2 2 1 1 1 2 2 4 8 8 8 7 8 9 9 10 11 10 10 10 8 9 8 8 8 7 9 10 15 23 26 27 28 27 29 29 30 30 30 30 30 30 31 30 30 32 32 32 32 32 32 31 30 30 29 27 24 21 23 24 23 22 25 27 29 30 30 28 27 26 27 26 25 27 28 28 27 27 26 25 25 24 23 22 22 23 22 22 21 22 23
2 2 1 1 1 3 1 0 1 1 1 1 4 4 6 6 7 7 8 9 8 9 12 11 10 11 11 10 9 9 10 9 9 9 11 18 23 26 27 28 29 29 29 31 32 31 32 32 32 32 31 33 33 33 31 30 29 28 27 27 27 26 25 21 18 20 22 22 22 26 30 32 30 28 27 27 27 25 24 27 29 29 29 29 29 28 28 26 25 24 24 24 23 22 22 22 23
4 3 2 2 1 3 2 2 3 3 1 1 3 5 6 5 7 8 8 10 10 9 11 11 10 10 10 9 9 11 11 11 11 10 10 14 20 24 27 28 29 30 31 32 33 34 34 34 34 33 33 33 34 34 32 29 27 26 23 22 20 21 25 25 21 19 20 21 22 24 25 27 28 28 28 28 27 26 25 26 27 27 28 29 29 29 28 27 26 26 25 25 25 24 24 23 22
3 5 6 3 1 4 6 4 3 2 2 2 2 1 5 5 9 10 8 9 11 10 10 11 11 10 9 9 9 9 10 10 11 11 12 14 19 23 26 28 29 30 31 32 34 34 34 34 34 33 33 33 33 34 34 32 30 29 26 24 23 23 25 28 30 28 24 22 23 22 21 22 25 27 28 28 28 27 27 26 26 25 26 28 28 28 27 26 27 27 25 26 27 26 25 23 23
3 3 5 5 4 6 7 5 3 2 3 2 3 3 5 3 5 8 7 10 11 9 10 11 10 9 9 9 9 8 8 8 9 10 11 14 18 21 23 27 30 30 31 31 31 32 32 32 32 33 33 33 32 32 34 34 32 31 30 29 27 27 27 28 31 31 27 26 24 23 22 22 23 26 28 30 30 30 29 28 27 25 25 26 27 27 26 26 26 26 25 26 26 26 26 25 24
3 3 3 4 7 6 7 6 3 2 0 2 1 2 3 5 5 5 1 6 7 7 8 9 8 8 10 11 10 9 9 9 8 8 9 11 16 21 23 27 31 30 29 29 29 30 31 31 31 32 32 32 32 32 33 35 34 32 32 31 29 28 27 26 25 25 24 24 24 24 22 21 22 24 26 28 30 30 29 29 28 28 27 27 27 27 27 27 26 26 25 26 26 26 27 28 27
3 1 3 2 3 5 6 6 3 1 3 2 3 2 1 5 5 3 0 3 5 6 8 10 10 10 10 11 11 11 11 10 10 10 9 10 15 20 23 25 28 28 27 27 29 29 29 29 29 30 31 31 32 32 33 34 35 33 31 30 29 29 27 24 21 21 22 22 23 23 22 21 22 22 22 24 27 30 30 29 29 29 29 28 28 28 27 26 25 25 26 27 27 28 29 29 29
3 2 5 5 4 3 3 3 3 2 2 4 5 4 3 5 5 4 2 4 6 6 8 9 10 12 11 10 10 10 9 9 9 9 9 10 14 17 18 20 22 23 24 25 27 27 27 27 27 29 30 30 30 31 32 34 35 33 31 31 30 29 28 24 21 21 23 24 24 23 22 21 21 21 21 21 23 26 28 29 29 29 29 28 28 27 27 26 26 26 27 28 29 29 29 29 29
3 3 5 5 4 5 3 1 2 1 2 4 5 6 6 4 5 5 4 4 6 7 6 5 4 8 9 7 7 8 7 6 6 6 6 8 11 13 14 16 18 19 21 23 24 25 26 27 27 28 29 28 28 30 31 33 34 34 33 32 31 29 28 26 24 23 24 25 25 25 23 22 21 21 21 21 22 22 23 24 25 26 26 27 27 27 26 26 26 26 26 27 28 29 29 28 29
3 3 4 3 3 4 3 2 2 1 4 3 3 1 4 4 4 4 3 1 3 4 2 1 2 4 4 4 5 5 5 5 5 5 5 6 7 10 13 14 16 17 19 21 23 24 25 26 27 27 27 28 28 29 30 31 32 33 32 31 30 29 28 28 27 26 25 25 25 24 23 22 22 23 23 23 24 22 21 21 21 22 22 23 24 25 26 25 25 24 24 25 26 27 27 27 28
3 3 5 4 1 2 1 1 2 3 4 2 2 3 2 5 5 7 10 7 3 4 3 3 5 5 4 5 5 5 4 5 5 5 6 6 6 9 12 14 15 17 19 21 22 22 24 25 26 27 27 27 27 28 30 31 31 32 32 30 29 28 27 28 28 28 26 26 25 24 23 23 24 24 24 24 23 21 19 19 19 19 19 19 20 22 23 23 23 23 23 23 24 25 25 26 28
4 5 5 4 3 2 2 2 2 4 3 3 3 1 2 4 4 9 14 14 9 3 5 4 6 6 6 6 5 5 4 5 6 6 6 6 7 10 13 16 17 18 19 20 21 22 23 24 26 27 27 27 27 28 30 30 31 32 31 30 28 28 28 27 28 28 27 25 25 24 24 23 23 23 22 21 21 20 19 18 17 16 17 17 19 20 20 21 21 20 20 20 20 21 21 23 25
5 5 4 4 4 2 3 3 2 4 2 3 3 1 3 3 3 7 10 10 5 3 4 3 3 4 5 5 4 5 5 6 6 6 6 6 8 12 14 16 18 18 19 20 21 22 23 24 26 27 28 28 27 28 29 30 31 30 30 29 27 27 27 27 26 25 25 24 24 23 23 23 22 21 21 21 21 21 20 18 17 17 18 20 21 21 21 20 20 19 19 19 18 18 19 21 23
2 3 4 2 3 2 2 2 2 3 0 2 2 2 4 4 5 8 7 6 5 4 4 4 4 4 5 5 5 6 6 6 6 6 6 7 9 12 14 15 17 17 19 20 21 23 24 25 26 27 28 28 28 28 28 30 30 28 28 28 27 26 25 26 25 23 23 23 23 22 22 22 22 22 21 22 23 23 22 21 21 21 21 22 22 22 22 21 20 20 20 20 19 19 20 22 23
1 3 4 3 3 5 3 1 0 2 2 3 3 2 5 3 6 9 8 7 6 6 6 6 7 6 6 6 6 6 6 6 6 6 6 6 9 11 13 14 16 17 20 21 22 23 24 24 25 26 26 27 27 27 27 27 27 27 26 26 26 25 24 24 25 24 22 21 21 21 21 21 22 22 21 21 21 22 22 22 22 22 21 21 21 22 22 22 21 21 21 21 20 19 20 23 24
4 3 4 3 2 3 2 1 2 1 4 3 4 4 4 2 4 6 5 8 8 7 6 5 6 6 6 6 6 7 7 6 6 6 6 6 9 11 13 14 15 17 19 20 21 22 22 22 24 25 25 26 27 26 26 26 26 26 25 26 26 25 24 23 23 23 22 22 22 22 21 21 21 22 22 21 21 21 21 21 21 21 21 21 21 21 22 22 22 22 22 23 22 21 22 24 23
3 3 2 3 2 1 1 2 2 2 4 4 3 6 4 4 4 4 2 7 9 7 6 5 5 6 6 6 7 6 6 6 6 6 6 6 8 11 13 13 14 15 17 18 19 20 19 20 21 22 23 24 26 25 25 25 25 25 24 25 25 24 24 24 23 23 23 23 24 23 24 23 23 23 23 23 23 22 22 22 22 21 21 21 21 20 21 21 22 23 24 24 24 22 22 22 23
1 1 2 2 3 4 3 2 2 1 3 4 4 3 3 5 6 5 7 8 6 5 6 5 4 5 6 6 6 6 6 6 6 6 6 6 8 12 14 14 14 15 15 16 17 19 19 18 20 21 20 22 23 24 25 26 26 24 23 23 23 23 24 24 24 23 23 23 23 24 24 24 23 23 23 23 23 23 23 22 22 21 21 20 20 20 20 20 20 21 23 23 23 22 21 22 23
3 2 2 1 2 3 1 2 2 2 2 3 3 2 4 5 4 6 8 5 2 4 5 3 2 2 2 2 3 5 6 6 6 6 6 6 8 12 12 12 14 14 14 15 16 18 18 18 20 21 20 21 22 23 25 26 25 25 23 23 24 24 24 24 23 23 22 22 22 21 21 21 21 22 22 22 22 22 21 21 20 19 19 19 19 19 19 19 20 21 22 23 23 22 22 23 23
5 4 6 6 4 4 2 3 3 3 2 3 3 4 5 5 2 2 2 1 2 3 4 2 2 2 4 4 3 2 4 6 7 6 6 6 8 11 12 12 13 14 15 15 15 17 18 19 20 21 20 21 22 22 23 23 23 24 24 23 23 23 23 22 22 22 21 21 20 20 19 19 19 19 19 19 20 19 18 18 18 18 18 18 18 18 19 19 20 21 22 23 23 23 23 23 23
Wind_Direction
310 314 312 300 302 310 287 233 266 251 221 262 217 134 85 85 103 105 111 134 100 72 42 62 59 47 20 57 103 87 47 39 32 80 110 140 152 146 126 124 128 128 136 134 129 122 113 104 95 95 94 94 96 101 100 102 101 90 83 84 96 98 92 91 86 83 83 81 79 78 78 74 67 74 80 79 75 75 80 80 77 77 77 76 76 77 78 78 78 78 78 79 79 80 82 82 81
299 298 299 292 280 285 282 191 258 257 212 241 122 92 115 115 119 119 135 133 96 100 80 68 57 71 117 48 103 85 54 53 69 88 106 137 138 126 127 130 129 131 136 130 129 125 117 109 98 96 95 96 100 105 107 103 96 90 87 82 93 101 98 93 88 85 85 83 80 77 75 74 70 73 76 74 74 73 73 75 76 78 78 77 76 78 78 80 80 80 81 81 82 83 85 86 87
298 277 284 283 253 239 281 261 245 269 247 214 87 98 134 133 128 114 99 91 97 113 85 75 73 55 312 77 69 65 78 78 89 95 113 138 131 129 137 133 131 133 132 130 134 130 121 115 103 99 102 103 108 114 113 103 96 95 90 81 88 101 102 96 90 86 86 86 81 80 77 76 75 75 75 73 73 73 73 76 81 83 82 80 77 78 78 79 79 79 80 82 84 85 88 91 90
297 270 293 293 248 219 258 224 217 257 277 201 107 152 149 118 106 94 86 90 105 116 99 119 102 358 341 72 75 78 99 92 98 107 125 143 137 139 141 133 133 133 134 135 138 136 125 118 107 102 103 103 110 118 116 106 103 101 93 87 87 102 108 100 91 89 89 89 84 84 82 79 77 76 75 75 76 75 77 79 81 83 83 82 80 79 79 79 79 80 80 82 84 87 93 95 92
300 284 285 290 280 235 257 251 243 239 284 300 122 166 136 107 101 98 97 100 120 130 133 161 108 221 8 43 41 87 106 108 114 120 123 130 137 142 137 132 135 136 138 137 143 141 128 121 111 106 104 102 111 118 117 109 107 105 97 91 88 105 115 109 100 95 93 90 87 88 87 84 80 81 81 77 79 80 79 78 77 78 78 78 79 78 80 81 81 81 81 83 86 90 97 97 94
309 288 251 260 276 344 312 267 250 219 302 345 118 142 118 110 111 110 105 96 108 112 117 159 123 118 95 47 50 47 75 125 131 125 123 130 140 143 135 134 137 139 138 139 148 142 131 125 117 111 105 105 110 116 117 111 110 106 100 94 93 110 120 116 109 101 96 93 90 91 91 89 83 82 87 85 85 87 83 81 79 78 79 79 81 82 82 84 84 84 82 85 88 94 100 99 97
304 290 212 227 243 267 258 259 259 211 318 355 98 123 107 112 118 113 114 101 73 52 2 279 149 112 113 119 77 28 33 112 133 128 130 136 141 142 138 137 137 137 136 141 148 142 135 129 122 116 109 106 111 116 118 116 114 108 105 102 98 112 122 117 112 106 100 97 95 94 94 91 86 84 89 90 89 91 88 86 84 81 83 83 84 84 83 84 85 85 85 87 90 100 106 103 101
281 284 166 224 222 199 252 262 275 121 342 2 48 100 109 120 126 121 136 139 138 164 206 253 159 92 124 137 104 44 61 98 122 129 135 137 141 143 140 139 137 134 136 144 148 144 140 133 127 120 115 109 111 117 120 121 117 112 111 110 102 111 123 122 116 110 104 102 99 96 96 92 89 89 87 90 89 90 90 89 88 86 87 87 86 86 85 85 86 86 87 90 92 104 111 107 103
239 231 20 255 219 199 241 263 257 122 106 78 58 92 111 131 132 132 154 141 148 161 167 187 147 108 117 92 94 107 87 101 117 129 136 139 143 143 141 144 138 133 139 147 148 147 143 137 132 125 121 112 112 116 121 123 116 115 119 118 106 108 120 128 124 116 111 108 104 100 100 97 91 90 87 90 92 91 90 88 88 87 88 90 90 89 90 88 87 88 87 91 94 104 113 109 103
204 188 285 237 236 208 209 258 249 117 96 89 87 106 117 146 140 143 157 129 145 149 146 151 106 131 116 99 103 128 123 119 120 129 138 142 143 141 143 145 139 137 144 146 148 152 147 142 137 130 125 116 114 113 120 121 115 118 123 121 111 110 115 127 131 122 119 116 109 104 103 101 96 96 95 94 93 91 90 88 87 89 88 89 91 90 91 90 87 88 87 92 94 101 114 111 104
208 193 238 218 249 231 209 230 200 119 108 96 91 109 123 157 147 149 149 130 145 124 125 136 143 169 117 101 96 126 137 132 127 135 141 143 143 143 145 144 142 142 144 146 152 157 151 147 142 135 129 121 117 114 119 119 120 121 124 123 116 117 116 123 132 127 125 123 116 109 108 107 105 109 107 99 95 94 93 91 90 92 92 89 90 91 93 93 91 89 90 95 93 100 111 112 107
223 208 186 202 236 225 232 227 164 117 122 126 125 128 138 167 158 157 143 135 142 121 149 174 160 190 130 103 135 134 142 143 137 141 145 146 145 146 147 145 147 145 145 148 155 159 157 154 149 143 136 128 123 120 120 119 124 126 128 130 121 121 124 126 128 125 129 130 124 117 115 113 117 118 110 107 107 101 96 97 95 92 92 90 91 93 94 95 94 90 93 97 95 104 111 112 110
225 224 180 217 247 239 262 268 118 110 135 162 150 156 169 178 172 160 138 137 147 141 171 181 134 195 112 95 132 143 150 152 144 144 148 149 149 150 149 150 152 150 151 154 156 161 161 160 157 153 145 138 133 128 127 125 127 130 134 139 132 124 127 132 129 129 132 135 132 124 116 108 120 124 117 118 117 108 100 104 104 96 91 90 91 91 93 92 91 90 94 96 97 111 115 114 111
270 273 203 221 256 259 268 16 114 130 173 155 135 152 163 184 185 142 134 147 147 148 137 124 24 52 108 118 142 157 159 154 147 146 150 149 149 152 152 153 156 155 157 158 159 162 163 165 164 160 155 152 146 139 136 131 131 133 136 142 141 130 126 128 130 132 130 134 131 123 114 106 126 132 126 125 119 109 103 108 111 103 94 91 95 92 92 92 90 90 94 94 103 120 120 116 111
290 310 272 233 252 257 269 269 156 161 164 133 134 155 146 163 186 91 104 150 120 134 96 78 7 33 117 175 169 167 156 152 147 147 150 149 150 153 154 156 159 161 163 163 164 164 163 166 171 168 164 163 159 155 147 139 136 135 135 138 143 142 134 126 126 128 123 126 123 122 116 110 133 140 131 126 122 113 103 106 106 110 102 96 104 99 93 93 92 92 96 97 111 128 124 117 109
283 318 289 262 246 238 237 239 170 159 147 131 149 156 132 40 21 71 358 112 103 164 93 75 18 53 28 26 136 148 149 149 146 147 151 152 153 154 153 157 165 167 169 170 167 169 165 168 178 173 168 170 167 166 158 149 144 139 137 137 142 147 144 136 131 127 123 122 117 115 111 118 140 149 142 135 133 125 115 113 104 115 117 110 111 106 101 100 99 101 108 104 117 132 126 120 113
1 305 250 257 235 207 188 193 167 138 136 136 162 163 138 127 50 82 246 106 114 149 85 70 59 69 43 77 124 138 144 147 145 147 153 153 153 154 152 159 170 172 177 179 171 173 173 174 180 172 171 175 168 173 171 159 151 146 143 139 142 146 145 145 139 135 129 119 108 99 97 105 129 147 154 150 150 143 131 130 118 122 131 130 124 120 118 113 117 129 136 111 119 139 131 125 121
53 223 213 227 233 217 210 185 140 126 137 149 170 171 146 148 147 128 169 112 121 145 111 85 68 66 68 101 123 134 142 147 148 152 156 155 154 157 161 168 175 176 180 184 179 179 178 178 180 171 175 178 168 177 181 166 159 154 151 147 146 146 146 147 144 143 132 118 108 98 94 89 113 144 165 166 168 165 160 155 143 133 138 146 142 139 140 141 147 161 169 136 125 147 141 134 133
196 238 218 225 236 219 355 49 88 106 146 155 167 178 159 149 155 142 160 145 134 149 141 125 99 85 94 115 125 134 144 150 153 158 160 161 162 164 170 176 179 178 181 185 184 185 183 182 180 172 179 181 172 178 182 173 167 161 161 160 155 150 148 146 142 140 131 128 114 100 112 124 142 167 179 177 183 178 181 188 172 158 144 153 152 153 159 162 175 175 167 151 136 147 142 137 148
218 232 231 243 316 82 24 47 54 44 132 150 162 187 175 146 148 152 171 160 160 181 166 153 142 143 151 135 134 140 149 156 161 165 168 171 170 170 173 178 182 181 183 187 187 188 188 186 184 178 182 182 176 180 183 177 171 166 172 172 167 159 146 143 139 136 142 134 116 112 156 173 176 188 186 180 192 189 196 203 195 197 181 180 172 191 196 190 209 190 160 156 146 142 135 131 162
203 193 231 290 346 55 36 44 42 26 107 148 152 176 175 146 142 156 176 167 178 204 183 176 167 153 158 155 146 150 156 161 170 173 174 178 175 176 178 179 184 185 183 188 190 190 190 189 187 184 183 182 179 183 185 175 169 171 178 174 174 168 147 155 160 150 179 145 121 150 193 191 189 192 192 186 191 197 202 203 206 223 214 212 196 228 228 208 217 195 164 153 144 135 140 153 181
228 231 227 2 351 41 41 39 33 3 31 134 147 168 159 135 136 169 193 187 181 213 186 182 171 151 157 162 152 156 163 166 176 181 180 183 180 179 182 181 184 188 187 188 192 192 192 190 189 187 185 184 184 187 187 171 170 175 178 172 169 178 158 165 179 171 194 161 135 193 206 190 191 192 189 177 185 210 186 174 174 185 207 192 171 269 292 199 185 160 149 146 141 133 159 194 219
226 248 186 47 25 52 14 31 14 345 39 130 149 147 117 123 146 191 211 192 138 50 30 161 154 150 155 157 156 161 171 174 180 185 184 185 184 183 184 182 183 189 189 189 193 193 193 192 191 191 188 188 188 188 187 175 177 181 182 179 169 181 178 172 184 189 203 169 156 211 198 172 178 184 176 161 181 212 180 151 150 181 225 173 139 176 268 221 146 149 148 144 150 165 182 205 215
225 247 123 56 54 75 20 48 347 349 47 94 133 116 121 158 169 196 210 148 114 83 36 62 117 139 149 153 162 170 175 181 184 187 187 188 189 187 186 184 186 187 187 188 192 194 194 193 192 193 191 192 190 187 188 181 182 187 186 185 176 182 189 181 186 192 206 189 179 209 183 165 177 185 180 169 182 198 189 179 177 199 220 209 149 191 238 232 172 176 169 157 190 209 209 210 211
229 242 122 123 89 97 78 95 17 18 40 349 117 135 139 163 147 192 202 150 121 110 68 76 110 131 147 154 165 172 176 181 184 188 190 192 191 191 191 188 188 187 184 186 192 195 193 193 193 193 193 194 193 189 191 187 185 191 191 190 186 187 189 187 189 190 202 202 192 199 184 175 181 186 192 188 187 188 194 192 190 207 208 197 199 207 232 236 193 191 194 195 210 215 215 214 211
224 215 125 134 120 118 130 123 109 71 37 5 129 153 114 102 77 211 210 166 126 114 95 106 124 136 150 157 167 170 175 182 184 189 191 192 192 194 195 191 191 189 186 187 192 196 193 193 194 194 194 195 195 192 192 193 190 194 196 195 193 193 191 190 195 194 201 208 200 198 192 187 191 195 196 197 196 191 198 201 197 208 205 203 216 218 232 246 210 197 206 211 214 213 225 233 219
257 157 107 112 121 124 177 130 125 143 127 155 207 169 103 89 146 228 209 159 131 117 115 133 143 154 160 160 171 172 176 184 185 187 189 193 194 196 197 193 194 193 189 191 194 198 196 194 196 196 197 196 196 196 195 196 196 199 201 199 198 199 198 197 202 203 204 209 209 212 202 189 194 211 206 199 201 201 205 210 206 210 213 215 224 222 230 243 215 206 221 218 208 208 226 239 234
346 122 100 111 130 118 160 128 143 176 129 195 232 133 96 98 195 231 175 147 144 138 138 153 161 172 173 166 171 175 179 185 185 186 189 193 194 195 197 195 197 196 192 194 195 198 199 195 197 198 198 198 198 198 197 198 199 203 206 203 203 206 204 200 204 210 210 210 214 224 219 197 192 207 220 212 205 207 215 219 216 216 220 223 228 224 229 236 214 208 223 217 208 213 218 227 233
336 165 132 147 152 144 178 152 164 194 154 195 229 1 193 179 216 211 151 148 152 150 155 166 174 173 176 173 168 173 181 182 184 191 193 193 193 194 198 198 199 200 196 196 194 196 200 198 198 199 199 201 200 199 199 200 199 205 211 208 207 210 206 201 207 216 217 211 211 221 226 217 203 203 216 224 218 214 219 226 225 222 224 226 230 228 230 234 220 213 224 221 215 214 214 225 227
307 246 220 156 170 201 185 156 154 166 149 202 165 291 236 213 216 193 149 158 152 166 175 171 184 175 171 176 167 174 182 182 185 194 196 193 194 195 198 198 198 201 200 198 196 196 198 199 200 200 201 203 202 202 202 202 201 206 213 211 208 211 210 205 209 218 220 211 207 217 224 224 220 210 209 220 229 224 221 228 230 227 225 223 227 230 232 235 228 222 230 231 225 221 217 229 230
233 231 253 186 181 185 174 155 155 158 298 227 134 216 261 237 200 166 148 161 155 182 190 171 186 183 174 170 169 180 186 188 190 193 195 194 195 196 196 195 196 199 200 199 199 197 196 198 200 200 201 204 205 204 204 204 202 204 211 212 208 211 212 209 209 214 218 214 208 216 224 222 223 220 211 218 230 229 223 228 231 229 227 223 225 232 235 236 234 231 237 238 233 231 226 232 239
221 204 230 212 202 158 159 171 175 166 199 205 166 219 265 339 127 138 150 163 161 185 192 178 184 183 181 174 173 182 184 192 194 194 196 197 196 195 196 195 194 196 197 198 198 198 196 197 200 200 201 203 206 206 205 206 205 205 210 214 214 212 212 210 208 211 216 216 211 218 226 222 223 224 219 221 230 231 225 228 234 233 230 228 229 235 239 238 236 235 240 243 238 237 234 235 242
223 203 188 198 205 171 161 212 211 149 119 193 222 255 247 117 126 131 146 171 178 195 194 185 185 184 183 178 181 183 180 187 193 196 197 197 197 196 196 196 196 196 196 196 196 196 195 197 199 200 202 202 205 208 207 208 209 210 211 213 218 217 214 212 209 210 216 215 210 217 225 224 225 227 224 224 230 233 229 230 236 238 234 233 235 239 242 240 238 238 239 244 240 237 238 236 237
219 209 204 203 192 175 160 212 231 154 142 196 217 249 256 197 158 156 175 182 186 211 211 195 186 182 183 180 185 188 188 186 189 196 196 196 198 197 197 197 197 197 197 197 198 197 195 197 199 199 202 202 204 206 204 206 209 212 212 213 219 220 220 221 216 213 215 215 212 215 223 229 231 230 227 226 229 233 234 234 236 239 239 237 236 240 245 243 239 240 240 243 239 233 234 233 232
188 192 210 224 196 185 177 178 179 173 195 211 188 226 258 232 171 171 194 184 184 209 219 214 194 181 184 185 186 190 195 196 192 194 195 195 196 197 197 196 196 196 197 197 199 199 197 199 200 198 198 198 200 205 207 207 207 210 213 213 218 223 225 227 225 223 221 220 221 223 226 231 234 231 227 226 228 231 233 235 233 234 239 240 238 240 245 245 241 241 241 242 240 236 235 234 234
195 187 197 221 202 186 168 137 145 152 185 221 190 209 240 237 210 186 194 189 191 206 213 223 213 194 191 186 188 191 194 201 194 194 196 195 195 196 195 195 194 194 196 196 197 198 196 198 200 199 199 197 197 200 204 203 203 208 213 213 217 221 224 224 224 225 225 223 224 226 225 226 232 234 229 226 229 231 232 233 231 231 237 241 242 243 248 251 250 249 247 246 246 244 241 239 240
278 190 189 210 204 185 104 86 321 90 148 224 219 225 236 241 235 203 183 182 194 203 207 215 214 208 202 191 191 192 198 202 192 192 196 196 196 196 196 195 193 192 193 194 195 196 196 196 198 201 203 202 200 199 199 199 201 205 209 212 215 214 215 219 221 223 224 224 222 221 220 223 231 237 235 228 228 232 233 233 235 236 240 243 246 249 253 255 256 256 255 250 248 248 248 245 243
320 239 175 210 212 195 71 76 248 43 81 230 227 238 245 240 243 219 166 172 202 202 197 203 206 209 209 202 200 196 197 197 187 189 190 190 192 195 194 194 193 193 193 194 195 196 196 197 199 202 202 201 202 202 202 202 204 205 206 209 213 212 212 218 225 227 227 227 225 224 225 229 234 237 238 235 232 235 237 237 239 241 242 244 246 249 251 252 255 257 257 252 248 250 252 251 247
316 339 177 222 204 133 71 47 80 103 172 277 268 244 252 247 248 235 177 182 208 201 196 199 199 204 208 205 203 199 198 193 188 187 183 183 187 190 192 193 195 196 196 197 198 198 198 199 200 202 202 200 201 202 203 205 207 208 210 212 213 213 214 221 230 232 231 232 231 230 230 233 236 237 239 238 237 240 242 240 240 242 244 245 247 248 248 251 256 260 260 256 250 248 250 252 250
266 312 315 265 103 103 14 297 106 356 182 27 353 307 269 265 268 258 214 206 209 198 201 202 197 204 207 201 194 193 197 195 190 188 181 179 182 187 191 193 195 196 197 199 199 199 200 201 202 202 202 202 202 202 204 206 207 209 214 217 217 217 216 215 223 229 230 233 234 232 231 232 235 238 238 237 238 244 247 242 240 242 245 246 248 249 249 251 257 261 262 257 249 244 245 250 253
234 237 240 292 10 105 79 140 148 14 13 135 358 321 283 242 238 249 232 222 219 203 201 205 207 210 206 202 199 194 194 191 188 190 186 181 185 189 193 194 195 196 199 200 200 201 202 204 205 204 203 205 205 204 202 202 202 201 203 205 208 214 215 214 216 219 221 225 228 229 229 231 233 236 235 233 238 246 248 243 241 243 246 247 248 250 252 254 258 261 261 256 250 244 245 251 254
239 212 204 232 358 99 109 134 143 53 308 234 124 309 280 229 214 229 220 214 221 209 202 209 212 211 204 206 209 202 195 190 188 190 187 186 191 194 195 196 196 198 201 203 204 204 204 205 206 205 205 206 207 206 204 201 200 199 196 193 193 197 205 212 216 216 216 220 223 225 229 232 231 232 231 234 241 247 246 244 242 243 245 246 248 250 253 255 258 259 258 256 254 249 247 250 252
235 230 218 191 120 106 134 147 134 148 251 285 112 177 267 283 242 248 222 202 212 208 206 214 211 205 203 208 212 203 197 196 192 191 186 186 190 191 194 198 199 202 204 205 206 206 206 206 206 206 206 206 207 207 205 203 202 202 201 200 198 197 201 209 215 218 220 223 226 229 232 233 231 232 235 239 243 245 245 243 243 244 246 248 248 249 251 257 260 259 260 259 257 254 248 246 248
218 290 297 181 139 135 151 148 161 196 170 349 8 162 274 296 271 280 237 179 206 209 211 225 222 213 211 213 213 206 203 200 195 192 186 185 187 189 194 200 203 207 206 205 205 206 207 207 207 207 207 207 207 206 205 203 202 202 203 205 205 205 208 210 213 217 221 223 226 229 231 232 234 238 241 239 238 240 241 240 242 246 250 252 250 250 253 258 259 258 261 260 256 253 248 246 247
225 298 23 73 129 147 148 148 182 151 64 318 270 160 256 276 253 268 352 179 225 224 213 222 224 220 219 216 212 210 211 205 198 198 196 189 185 188 193 200 205 207 207 206 207 206 207 207 207 206 206 207 207 206 205 204 203 202 202 204 207 210 212 213 212 214 216 217 219 224 228 232 237 241 240 236 233 233 235 238 243 248 251 250 249 251 254 255 256 258 260 259 255 252 249 247 246
210 163 70 55 49 72 105 147 174 107 85 242 233 179 199 278 260 233 230 222 230 230 220 219 217 213 213 211 207 205 205 200 192 190 193 194 190 188 190 193 198 202 205 207 207 206 205 204 204 204 204 204 206 206 205 205 204 203 203 204 206 210 211 212 213 214 215 215 215 220 224 225 228 233 236 236 235 233 234 238 242 245 246 246 247 251 254 255 258 258 258 257 254 252 250 248 248
153 136 79 60 50 48 43 48 98 102 247 239 226 193 186 267 265 202 198 216 210 223 235 232 208 199 196 189 182 180 177 175 170 162 163 172 181 186 184 183 186 191 197 201 203 204 203 202 201 201 201 202 203 204 204 205 204 205 207 207 209 211 209 207 208 211 213 213 214 216 219 220 220 226 230 231 235 237 237 237 238 240 242 244 248 252 255 258 258 257 255 254 253 252 252 252 252
97 130 113 84 33 43 33 7 77 200 242 250 297 251 182 231 254 223 250 258 152 178 225 209 145 156 152 130 127 134 136 145 153 158 162 155 158 176 183 184 186 187 191 194 198 201 201 201 200 198 198 200 202 203 202 203 203 205 206 207 210 210 208 206 206 207 209 209 211 213 216 220 220 223 227 229 234 237 235 236 237 238 241 243 246 250 253 254 255 256 256 255 255 255 255 255 253
94 145 134 122 103 69 75 255 173 227 249 243 308 352 222 234 250 265 280 290 253 187 172 160 156 150 139 129 119 110 114 138 159 176 184 178 174 181 186 190 193 194 196 197 197 198 199 200 199 198 198 199 202 202 201 201 204 205 206 206 208 208 206 207 207 206 206 208 211 212 214 217 219 222 225 228 232 232 231 236 239 239 242 245 248 251 253 255 257 259 258 257 257 257 256 255 253
151 165 141 144 161 132 193 208 195 234 266 270 258 253 259 269 253 243 252 264 267 202 157 145 140 146 150 148 139 139 164 181 184 190 189 188 189 188 191 194 194 195 197 198 199 198 197 197 198 199 199 199 202 202 201 203 206 208 208 206 207 207 206 207 209 208 207 208 212 214 215 217 220 223 225 226 228 231 234 241 244 243 245 250 255 257 258 261 263 263 261 260 260 260 259 258 257
177 177 137 156 183 168 189 182 197 221 253 317 293 219 196 212 248 238 234 247 256 141 139 128 122 144 140 141 159 175 201 206 195 193 192 193 189 184 187 190 190 192 195 195 196 195 195 195 197 198 198 198 201 203 202 205 207 208 207 205 204 207 207 206 210 212 210 210 213 216 219 220 221 224 226 224 223 226 231 235 237 238 242 249 253 256 258 260 262 263 262 260 261 263 261 261 261
202 159 113 170 206 151 149 180 181 172 67 306 258 252 220 212 275 281 258 245 228 188 177 173 203 203 159 171 205 202 212 208 190 190 195 195 182 176 179 183 187 191 192 191 192 192 193 194 196 198 198 198 200 202 204 205 206 205 206 203 201 205 207 206 208 210 211 212 213 217 220 222 222 224 227 227 226 228 231 233 237 240 243 246 249 251 254 256 257 258 258 258 261 261 260 262 261
173 132 150 194 167 113 114 270 2 103 288 261 180 253 280 272 289 278 248 240 241 222 206 205 224 215 184 200 211 202 207 194 182 190 194 184 170 171 177 179 183 187 187 188 190 192 194 194 194 195 196 197 199 201 202 202 203 203 203 202 200 202 205 206 207 207 210 213 214 218 222 224 224 224 227 230 231 232 234 238 242 245 246 246 246 247 249 251 253 254 253 254 258 262 265 265 263
114 149 186 168 96 78 111 238 336 90 252 256 163 211 258 227 269 279 231 227 248 239 216 216 225 212 208 223 219 210 203 182 175 180 176 167 165 171 179 182 184 185 186 188 191 192 194 194 193 191 192 195 197 198 199 199 199 200 201 201 201 201 202 205 207 207 209 212 214 217 220 222 222 222 224 228 232 236 240 244 247 248 249 249 247 246 246 246 246 248 250 253 258 264 267 267 266
123 175 171 118 141 212 150 186 244 228 247 275 224 219 230 196 223 309 261 223 245 244 203 192 215 216 221 233 233 221 192 167 167 169 161 161 168 174 178 180 183 186 188 190 191 190 190 192 191 190 193 196 197 198 199 198 198 199 202 202 202 202 202 204 207 209 211 214 217 218 219 222 224 225 229 233 237 241 244 246 248 249 249 248 248 248 246 244 243 246 250 254 259 263 265 264 264
61 54 36 66 148 177 173 194 219 216 243 273 263 231 247 225 211 238 243 228 229 219 187 189 223 225 223 226 224 211 185 174 182 180 177 175 173 174 177 180 180 183 186 186 187 187 186 188 187 187 193 196 198 200 199 199 198 198 202 203 202 203 205 208 211 214 218 221 222 223 224 227 230 232 236 238 241 243 244 246 247 248 248 246 246 247 246 245 246 249 252 254 259 262 264 264 263
155 114 126 124 97 120 160 262 205 163 208 258 272 264 263 254 216 219 236 232 176 152 151 178 270 304 283 263 216 193 182 189 194 182 178 172 164 164 169 178 180 180 180 180 183 184 184 186 186 186 191 193 196 200 201 201 199 197 201 202 202 206 209 212 216 220 224 226 227 229 231 234 236 238 241 243 244 244 245 247 248 248 249 247 246 244 244 245 245 248 251 254 259 262 263 265 266
171 173 170 169 149 118 128 255 219 167 194 224 238 263 267 269 309 311 256 129 132 140 132 174 276 327 330 338 329 231 197 203 202 177 163 157 154 158 163 169 173 177 179 180 184 185 185 187 186 186 191 194 198 200 201 202 200 200 203 204 205 209 213 217 220 223 227 228 229 231 233 235 237 240 242 244 246 247 247 248 248 249 249 248 248 247 246 245 244 246 250 254 258 260 262 265 266